Regional Weather Roundup
Issued by NWS Little Rock, AR

Home | Current Version | Previous Version | Text Only | Print | Product List | Glossary On
Versions: 1 2 3 4 5 6 7 8 9 10 11 12 13 14 15 16 17 18 19 20 21 22 23 24 25 26 27 28 29 30 31 32 33 34 35 36
000
ASUS44 KLZK 230905
RWRLZK

WEATHER ROUNDUP FOR ARKANSAS
NATIONAL WEATHER SERVICE LITTLE ROCK AR
400 AM CDT THU OCT 23 2014

NOTE: "FAIR" INDICATES FEW OR NO CLOUDS BELOW 12,000 FEET WITH NO
SIGNIFICANT WEATHER AND/OR OBSTRUCTIONS TO VISIBILITY.

ARZ001-003-010-029-231000-
NORTHWEST ARKANSAS

CITY           SKY/WX    TMP DP  RH WIND       PRES   REMARKS
FAYETTEVILLE   CLOUDY    50  49  96 CALM      30.16F
FORT SMITH     CLOUDY    56  50  80 E8        30.15F
HARRISON       MOCLDY    47  47 100 S3        30.17S
BENTONVILLE    CLOUDY    54  48  82 SE5       30.16S
ROGERS         CLOUDY    55  50  83 SE6       30.17R
SILOAM SPGS    CLOUDY    55  46  71 E5        30.15F
HIGHFILL       CLOUDY    56  51  84 SE3       30.15S
$$

ARZ004-005-016-231000-
NORTH CENTRAL ARKANSAS

CITY           SKY/WX    TMP DP  RH WIND       PRES   REMARKS
BATESVILLE     CLEAR     43  39  87 NW6       30.20R
FLIPPIN        PTCLDY    43  37  81 CALM      30.19S
MTN HOME       PTCLDY    47  42  83 CALM      30.19R
$$

ARZ040-041-231000-
WEST CENTRAL ARKANSAS

CITY           SKY/WX    TMP DP  RH WIND       PRES   REMARKS
MENA           CLOUDY    54  52  94 CALM      30.18R
MOUNT IDA      CLOUDY    48  47  96 CALM      30.14S
$$

ARZ009-017-025-026-028-231000-
NORTHEAST ARKANSAS

CITY           SKY/WX    TMP DP  RH WIND       PRES   REMARKS
CORNING        FAIR      43  41  93 N5        30.20F
JONESBORO      CLEAR     46  43  89 NE5       30.19S
NEWPORT        PTCLDY    45  43  93 NW5       30.20S
WALNUT RIDGE   PTCLDY    45  39  81 N3        30.19S
BLYTHEVILLE    CLEAR     42  40  92 E3        30.19F
$$

ARZ022-023-033-042-044-231000-
CENTRAL ARKANSAS

CITY           SKY/WX    TMP DP  RH WIND       PRES   REMARKS
LITTLE ROCK    PTCLDY    49  43  80 CALM      30.17F
N LITTLE ROCK    N/A     50  45  82 NE5       30.17F
JACKSONVILLE   CLEAR     42  40  91 CALM      30.17F
SEARCY         CLEAR     43  42  97 CALM      30.20F
HOT SPRINGS    CLOUDY    49  46  90 CALM      30.16F
RUSSELLVILLE   CLOUDY    48  46  93 CALM      30.16F
$$

ARZ036-231000-
EAST ARKANSAS

CITY           SKY/WX    TMP DP  RH WIND       PRES   REMARKS
WEST MEMPHIS   CLEAR     46  45  96 CALM      30.17S
$$

ARZ050-053-066-070-073-231000-
SOUTHWEST ARKANSAS

CITY           SKY/WX    TMP DP  RH WIND       PRES   REMARKS
ARKADELPHIA    FAIR      51  49  93 NE3       30.17S
CAMDEN         CLOUDY    46  45  93 CALM      30.16S FOG
TEXARKANA      CLOUDY    54  50  86 CALM      30.14S
EL DORADO      CLOUDY    47  45  93 CALM      30.15F
DE QUEEN       CLOUDY    54  52  93 CALM      30.14S
$$

ARZ056-057-069-231000-
SOUTHEAST ARKANSAS

CITY           SKY/WX    TMP DP  RH WIND       PRES   REMARKS
PINE BLUFF     PTCLDY    48  44  86 NE3       30.15F
STUTTGART      CLEAR     45  41  87 NE7       30.17F
MONTICELLO     PTCLDY    48  45  89 CALM      30.14F

$$





USA.gov is the U.S. government's official web portal to all federal, state and local government web resources and services.